Hourly Weather Ruti

Today, 11 April, Sunday

Time Temperature Precipitation Wind Pressure Humidity
00:00 +6°C° 0 mm 2 mps 706 mmHg 74%
01:00 +7°C° 0 mm 1 mps 706 mmHg 74%
02:00 +7°C° 0 mm 1 mps 706 mmHg 74%
03:00 +7°C° 0 mm 1 mps 706 mmHg 74%
04:00 +7°C° 0 mm 1 mps 706 mmHg 74%
05:00 +7°C° 0 mm 1 mps 706 mmHg 74%
06:00 +7°C° 0 mm 1 mps 706 mmHg 74%
07:00 +8°C° 0 mm 1 mps 706 mmHg 74%
08:00 +9°C° 0 mm 0 mps 706 mmHg 67%
09:00 +11°C° 0 mm 0 mps 706 mmHg 61%
10:00 +13°C° 0 mm 0 mps 706 mmHg 54%
11:00 +15°C° 0 mm 1 mps 706 mmHg 51%
12:00 +16°C° 0 mm 1 mps 706 mmHg 48%
13:00 +19°C° 0 mm 1 mps 705 mmHg 44%
14:00 +17°C° 0 mm 2 mps 705 mmHg 47%
15:00 +17°C° 0 mm 2 mps 705 mmHg 50%
16:00 +17°C° 0 mm 3 mps 705 mmHg 53%
17:00 +13°C° 0.3 mm 3 mps 706 mmHg 66%
18:00 +12°C° 0.3 mm 2 mps 706 mmHg 78%
19:00 +8°C° 0.3 mm 2 mps 706 mmHg 91%
20:00 +7°C° 0.8 mm 2 mps 707 mmHg 91%
21:00 +7°C° 0.8 mm 2 mps 708 mmHg 92%
22:00 +6°C° 0.8 mm 2 mps 708 mmHg 92%
23:00 +6°C° 0.1 mm 2 mps 708 mmHg 92%

Tomorrow, 12 April, Monday

Time Temperature Precipitation Wind Pressure Humidity
00:00 +6°C° 0.1 mm 2 mps 709 mmHg 92%
01:00 +5°C° 0.1 mm 2 mps 709 mmHg 93%
02:00 +5°C° 0.5 mm 2 mps 709 mmHg 94%
03:00 +4°C° 0.5 mm 2 mps 710 mmHg 96%
04:00 +3°C° 0.5 mm 2 mps 710 mmHg 98%
05:00 +3°C° 1.4 mm 2 mps 711 mmHg 98%
06:00 +3°C° 1.4 mm 1 mps 712 mmHg 99%
07:00 +3°C° 1.4 mm 1 mps 712 mmHg 99%
08:00 +3°C° 1.1 mm 1 mps 713 mmHg 99%
09:00 +3°C° 1.1 mm 1 mps 713 mmHg 99%
10:00 +3°C° 1.1 mm 1 mps 714 mmHg 99%
11:00 +3°C° 1 mm 1 mps 714 mmHg 99%
12:00 +3°C° 1 mm 1 mps 714 mmHg 98%
13:00 +3°C° 1 mm 1 mps 715 mmHg 98%
14:00 +3°C° 1.1 mm 1 mps 715 mmHg 98%
15:00 +3°C° 1.1 mm 1 mps 715 mmHg 97%
16:00 +2°C° 1.1 mm 1 mps 715 mmHg 97%
17:00 +2°C° 0.6 mm 1 mps 716 mmHg 97%
18:00 +2°C° 0.6 mm 1 mps 716 mmHg 97%
19:00 +2°C° 0.6 mm 1 mps 716 mmHg 98%
20:00 +1°C° 0.1 mm 1 mps 716 mmHg 98%
21:00 -1°C° 0.1 mm 0 mps 716 mmHg 98%
22:00 -2°C° 0.1 mm 0 mps 716 mmHg 98%
23:00 -2°C° 0 mm 0 mps 716 mmHg 98%

Day after tomorrow, 13 April, Tuesday

Time Temperature Precipitation Wind Pressure Humidity
00:00 -3°C° 0 mm 0 mps 716 mmHg 98%
01:00 -3°C° 0 mm 0 mps 717 mmHg 98%
02:00 -3°C° 0 mm 0 mps 716 mmHg 98%
03:00 -3°C° 0 mm 0 mps 716 mmHg 98%
04:00 -3°C° 0 mm 0 mps 716 mmHg 97%
05:00 -3°C° 0 mm 0 mps 717 mmHg 97%
06:00 -2°C° 0 mm 0 mps 717 mmHg 96%
07:00 -2°C° 0 mm 0 mps 717 mmHg 96%
08:00 0°C° 0.1 mm 0 mps 717 mmHg 93%
09:00 +2°C° 0.1 mm 1 mps 717 mmHg 90%
10:00 +3°C° 0.1 mm 1 mps 717 mmHg 88%
11:00 +4°C° 0.3 mm 1 mps 717 mmHg 85%
12:00 +4°C° 0.3 mm 1 mps 717 mmHg 82%
13:00 +4°C° 0.3 mm 2 mps 717 mmHg 80%
14:00 +4°C° 0.5 mm 2 mps 716 mmHg 82%
15:00 +4°C° 0.5 mm 2 mps 716 mmHg 85%
16:00 +4°C° 0.5 mm 2 mps 716 mmHg 87%
17:00 +3°C° 0.5 mm 2 mps 716 mmHg 90%
18:00 +3°C° 0.5 mm 1 mps 717 mmHg 92%
19:00 +2°C° 0.5 mm 1 mps 717 mmHg 95%
20:00 +1°C° 0.2 mm 1 mps 717 mmHg 95%
21:00 0°C° 0.2 mm 1 mps 717 mmHg 96%
22:00 -1°C° 0.2 mm 0 mps 717 mmHg 96%
23:00 -2°C° 0 mm 0 mps 717 mmHg 96%

14 April, Wednesday

Time Temperature Precipitation Wind Pressure Humidity
00:00 -2°C° 0 mm 1 mps 717 mmHg 96%
01:00 -3°C° 0 mm 1 mps 717 mmHg 96%
02:00 -4°C° 0 mm 1 mps 717 mmHg 96%
03:00 -4°C° 0 mm 1 mps 717 mmHg 96%
04:00 -6°C° 0 mm 1 mps 717 mmHg 96%
05:00 -4°C° 0 mm 1 mps 717 mmHg 95%
06:00 -4°C° 0 mm 0 mps 717 mmHg 94%
07:00 -3°C° 0 mm 0 mps 717 mmHg 93%
08:00 0°C° 0 mm 1 mps 717 mmHg 89%
09:00 +2°C° 0 mm 1 mps 717 mmHg 85%
10:00 +2°C° 0 mm 2 mps 717 mmHg 80%
11:00 +3°C° 0.1 mm 2 mps 716 mmHg 75%
12:00 +4°C° 0.1 mm 2 mps 716 mmHg 70%
13:00 +5°C° 0.1 mm 2 mps 716 mmHg 64%
14:00 +5°C° 0.2 mm 2 mps 716 mmHg 66%
15:00 +5°C° 0.2 mm 2 mps 715 mmHg 69%
16:00 +5°C° 0.2 mm 2 mps 715 mmHg 71%
17:00 +4°C° 0.3 mm 2 mps 715 mmHg 78%
18:00 +2°C° 0.3 mm 2 mps 715 mmHg 85%
19:00 +2°C° 0.3 mm 1 mps 715 mmHg 92%
20:00 +1°C° 0 mm 1 mps 715 mmHg 93%
21:00 0°C° 0 mm 1 mps 715 mmHg 94%
22:00 -1°C° 0 mm 1 mps 716 mmHg 95%
23:00 -1°C° 0 mm 1 mps 715 mmHg 95%

15 April, Thursday

Time Temperature Precipitation Wind Pressure Humidity
00:00 -2°C° 0 mm 1 mps 715 mmHg 95%
01:00 -3°C° 0 mm 1 mps 715 mmHg 95%
02:00 -3°C° 0 mm 1 mps 715 mmHg 95%
03:00 -4°C° 0 mm 1 mps 715 mmHg 95%
04:00 -4°C° 0 mm 1 mps 715 mmHg 95%
05:00 -3°C° 0 mm 1 mps 715 mmHg 95%
06:00 -3°C° 0 mm 1 mps 715 mmHg 94%
07:00 -3°C° 0 mm 0 mps 716 mmHg 93%
08:00 0°C° 0 mm 1 mps 716 mmHg 87%
09:00 +1°C° 0 mm 2 mps 716 mmHg 82%
10:00 +1°C° 0 mm 3 mps 716 mmHg 76%
11:00 +2°C° 0.1 mm 3 mps 716 mmHg 69%
12:00 +3°C° 0.1 mm 3 mps 715 mmHg 61%
13:00 +4°C° 0.1 mm 3 mps 715 mmHg 54%
14:00 +4°C° 0.1 mm 3 mps 715 mmHg 59%
15:00 +4°C° 0.1 mm 4 mps 715 mmHg 64%
16:00 +4°C° 0.1 mm 4 mps 715 mmHg 68%
17:00 +3°C° 0.1 mm 3 mps 715 mmHg 73%
18:00 +2°C° 0.1 mm 3 mps 715 mmHg 77%
19:00 +1°C° 0.1 mm 2 mps 715 mmHg 82%
20:00 -1°C° 0 mm 2 mps 715 mmHg 85%
21:00 -2°C° 0 mm 2 mps 715 mmHg 88%
22:00 -3°C° 0 mm 2 mps 715 mmHg 91%
23:00 -4°C° 0 mm 2 mps 715 mmHg 92%

16 April, Friday

Time Temperature Precipitation Wind Pressure Humidity
00:00 -4°C° 0 mm 2 mps 715 mmHg 93%
01:00 -3°C° 0 mm 1 mps 715 mmHg 94%
02:00 -3°C° 0 mm 1 mps 714 mmHg 94%
03:00 -3°C° 0 mm 1 mps 714 mmHg 94%
04:00 -3°C° 0 mm 1 mps 714 mmHg 93%
05:00 -2°C° 0 mm 1 mps 714 mmHg 90%
06:00 -2°C° 0 mm 1 mps 714 mmHg 87%
07:00 -3°C° 0 mm 2 mps 714 mmHg 84%
08:00 -1°C° 0 mm 2 mps 714 mmHg 78%
09:00 +1°C° 0 mm 2 mps 714 mmHg 72%
10:00 +3°C° 0 mm 2 mps 714 mmHg 67%
11:00 +5°C° 0 mm 2 mps 714 mmHg 62%
12:00 +6°C° 0 mm 2 mps 713 mmHg 58%
13:00 +8°C° 0 mm 3 mps 713 mmHg 53%
14:00 +8°C° 0 mm 3 mps 713 mmHg 53%
15:00 +8°C° 0 mm 3 mps 712 mmHg 54%
16:00 +9°C° 0 mm 3 mps 712 mmHg 54%
17:00 +7°C° 0 mm 3 mps 712 mmHg 62%
18:00 +5°C° 0 mm 3 mps 712 mmHg 70%
19:00 +3°C° 0 mm 3 mps 712 mmHg 78%
20:00 +3°C° 0 mm 2 mps 712 mmHg 83%
21:00 +1°C° 0 mm 2 mps 713 mmHg 87%
22:00 +1°C° 0 mm 1 mps 713 mmHg 92%
23:00 0°C° 0 mm 1 mps 713 mmHg 93%
Show more